Retour au catalogue

DELTA 1 DEB

ActifSSO
NORAD 3974·DEBRIS·🇺🇸 United States

Lancé Aug 16, 1968 depuis Vandenberg Space Force Base

Loading…

Prochains Passages (prochaines 24 heures)

TLE

FraisSource: Space-Track

Époque: Sep 13, 2026, 05:51 UTC

1  3974U 68069E   26256.24400295 -.00000033  00000-0  78451-4 0  9995
2  3974 101.8488 351.8239 0035355  22.2616   3.3547 12.53284764658289

Suivez DELTA 1 DEB en temps réel avec AllMySat

Download on the App Store